�������l�o���
Date,Time,MP-1(��Sv/h),MP-2(��Sv/h),MP-3(��Sv/h),MP-4(��Sv/h),MP-5(��Sv/h),MP-6(��Sv/h),MP-7(��Sv/h),����,����(m/s),���J
2023/07/22,00:00,0.144,0.132,0.205,0.197,0.207,0.115,0.074,�k�k��,2.7,��
2023/07/22,00:10,0.145,0.134,0.207,0.199,0.208,0.114,0.073,�k��,2.8,��
2023/07/22,00:20,0.144,0.133,0.206,0.197,0.206,0.114,0.074,�k��,2.8,��
2023/07/22,00:30,0.144,0.131,0.205,0.198,0.207,0.115,0.074,�k�k��,2.0,��
2023/07/22,00:40,0.146,0.133,0.206,0.199,0.207,0.115,0.074,�k,3.0,��
2023/07/22,00:50,0.143,0.132,0.205,0.196,0.205,0.114,0.074,�k�k��,2.2,��
2023/07/22,01:00,0.144,0.133,0.207,0.197,0.209,0.115,0.074,�k��,2.7,��
2023/07/22,01:10,0.144,0.133,0.206,0.198,0.208,0.114,0.074,�k��,3.1,��
2023/07/22,01:20,0.143,0.132,0.204,0.196,0.206,0.114,0.074,�k��,1.9,��
2023/07/22,01:30,0.144,0.133,0.208,0.198,0.209,0.116,0.074,�k�k��,2.2,��
2023/07/22,01:40,0.144,0.132,0.206,0.197,0.206,0.114,0.074,�k��,2.0,��
2023/07/22,01:50,0.144,0.132,0.206,0.197,0.206,0.114,0.074,���k��,1.2,��
2023/07/22,02:00,0.146,0.132,0.208,0.199,0.209,0.115,0.074,�k��,1.9,��
2023/07/22,02:10,0.144,0.132,0.206,0.196,0.207,0.114,0.074,�k�k��,1.1,��
2023/07/22,02:20,0.145,0.133,0.206,0.198,0.208,0.115,0.074,�k�k��,1.5,��
2023/07/22,02:30,0.145,0.133,0.206,0.198,0.207,0.115,0.074,���k��,0.7,��
2023/07/22,02:40,0.144,0.133,0.208,0.198,0.205,0.114,0.074,�k��,1.2,��
2023/07/22,02:50,0.145,0.133,0.206,0.199,0.208,0.116,0.074,�k��,1.7,��
2023/07/22,03:00,0.145,0.133,0.207,0.198,0.207,0.115,0.075,�k�k��,2.1,��
2023/07/22,03:10,0.145,0.134,0.207,0.199,0.207,0.114,0.074,�k�k��,2.1,��
2023/07/22,03:20,0.146,0.133,0.206,0.199,0.208,0.115,0.075,�k��,2.4,��
2023/07/22,03:30,0.144,0.134,0.207,0.198,0.206,0.115,0.074,�k,2.0,��
2023/07/22,03:40,0.145,0.133,0.205,0.199,0.209,0.115,0.074,�k,2.3,��
2023/07/22,03:50,0.146,0.133,0.207,0.197,0.207,0.115,0.074,�k�k��,3.1,��
2023/07/22,04:00,0.144,0.133,0.206,0.199,0.208,0.114,0.074,�k,3.3,��
2023/07/22,04:10,0.146,0.133,0.206,0.197,0.209,0.115,0.074,�k�k��,3.6,��
2023/07/22,04:20,0.144,0.134,0.207,0.198,0.206,0.115,0.074,�k�k��,3.9,��
2023/07/22,04:30,0.145,0.133,0.207,0.199,0.208,0.115,0.074,�k�k��,3.8,��
2023/07/22,04:40,0.146,0.133,0.207,0.197,0.207,0.114,0.074,�k��,3.9,��
2023/07/22,04:50,0.144,0.132,0.206,0.199,0.208,0.114,0.074,�k��,4.1,��
2023/07/22,05:00,0.146,0.133,0.207,0.196,0.209,0.115,0.074,�k��,3.9,��
2023/07/22,05:10,0.143,0.133,0.206,0.199,0.207,0.115,0.075,�k�k��,3.4,��
2023/07/22,05:20,0.144,0.133,0.207,0.197,0.209,0.115,0.075,�k�k��,3.3,��
2023/07/22,05:30,0.145,0.132,0.207,0.197,0.207,0.115,0.074,�k�k��,3.5,��
2023/07/22,05:40,0.143,0.133,0.207,0.199,0.207,0.114,0.074,�k�k��,2.6,��
2023/07/22,05:50,0.145,0.133,0.208,0.196,0.208,0.114,0.074,�k�k��,1.5,��
2023/07/22,06:00,0.145,0.133,0.206,0.199,0.207,0.115,0.074,�k�k��,2.7,��
2023/07/22,06:10,0.144,0.132,0.208,0.197,0.205,0.114,0.074,�k��,3.1,��
2023/07/22,06:20,0.145,0.132,0.206,0.197,0.206,0.116,0.073,�k�k��,3.1,��
2023/07/22,06:30,0.145,0.131,0.208,0.198,0.209,0.114,0.073,�k�k��,2.8,��
2023/07/22,06:40,0.143,0.131,0.206,0.197,0.206,0.114,0.074,�k�k��,2.2,��
2023/07/22,06:50,0.145,0.132,0.205,0.196,0.205,0.115,0.073,�k��,1.4,��
2023/07/22,07:00,0.144,0.133,0.207,0.199,0.208,0.114,0.074,�k�k��,1.4,��
2023/07/22,07:10,0.143,0.132,0.207,0.198,0.208,0.114,0.073,�k��,3.0,��
2023/07/22,07:20,0.143,0.133,0.205,0.195,0.207,0.115,0.074,�k�k��,2.0,��
2023/07/22,07:30,0.143,0.132,0.204,0.196,0.206,0.114,0.072,�k,1.7,��
2023/07/22,07:40,0.145,0.133,0.204,0.199,0.208,0.114,0.073,�k,2.0,��
2023/07/22,07:50,0.145,0.132,0.205,0.199,0.208,0.114,0.074,�k�k��,2.0,��
2023/07/22,08:00,0.143,0.132,0.207,0.196,0.208,0.114,0.073,�k�k��,2.0,��
2023/07/22,08:10,0.143,0.133,0.206,0.196,0.206,0.114,0.074,�k�k��,2.9,��
2023/07/22,08:20,0.144,0.133,0.204,0.195,0.205,0.114,0.073,�k�k��,2.9,��
2023/07/22,08:30,0.145,0.133,0.204,0.195,0.204,0.114,0.074,�k�k��,3.0,��
2023/07/22,08:40,0.145,0.132,0.203,0.198,0.208,0.115,0.074,�k�k��,2.3,��
2023/07/22,08:50,0.143,0.132,0.206,0.198,0.209,0.115,0.074,���k��,2.0,��
2023/07/22,09:00,0.143,0.132,0.207,0.198,0.206,0.114,0.073,���k��,1.5,��
2023/07/22,09:10,0.143,0.131,0.206,0.196,0.206,0.114,0.072,�k��,1.7,��
2023/07/22,09:20,0.143,0.132,0.206,0.196,0.206,0.114,0.073,�k�k��,2.6,��
2023/07/22,09:30,0.143,0.131,0.206,0.197,0.205,0.115,0.074,�k��,2.1,��
2023/07/22,09:40,0.144,0.131,0.206,0.197,0.207,0.114,0.073,�k��,3.2,��
2023/07/22,09:50,0.142,0.132,0.206,0.197,0.206,0.115,0.073,�k��,2.3,��
2023/07/22,10:00,0.143,0.131,0.206,0.197,0.206,0.114,0.073,�k��,1.4,��
2023/07/22,10:10,0.144,0.132,0.206,0.198,0.207,0.114,0.073,�k��,2.4,��
2023/07/22,10:20,0.144,0.132,0.205,0.198,0.207,0.114,0.073,�k��,2.5,��
2023/07/22,10:30,0.144,0.133,0.206,0.197,0.207,0.115,0.073,�k�k��,1.6,��
2023/07/22,10:40,0.144,0.132,0.207,0.198,0.208,0.115,0.074,�k��,2.5,��
2023/07/22,10:50,0.144,0.133,0.208,0.198,0.206,0.114,0.074,�k��,3.0,��
2023/07/22,11:00,0.144,0.132,0.207,0.198,0.206,0.116,0.074,�k��,2.5,��
2023/07/22,11:10,0.144,0.132,0.207,0.199,0.207,0.115,0.074,�k��,2.2,��
2023/07/22,11:20,0.144,0.132,0.205,0.198,0.207,0.114,0.074,�k��,3.1,��
2023/07/22,11:30,0.144,0.133,0.206,0.198,0.207,0.116,0.073,�k��,2.3,��
2023/07/22,11:40,0.143,0.132,0.205,0.199,0.208,0.114,0.073,���k��,2.1,��
2023/07/22,11:50,0.145,0.133,0.206,0.198,0.208,0.114,0.074,���k��,2.5,��
2023/07/22,12:00,0.145,0.133,0.208,0.199,0.207,0.114,0.073,��,2.3,��
2023/07/22,12:10,0.145,0.133,0.206,0.198,0.207,0.114,0.074,��,2.5,��
2023/07/22,12:20,0.144,0.133,0.207,0.198,0.207,0.115,0.074,��,2.9,��
2023/07/22,12:30,0.145,0.134,0.207,0.199,0.208,0.115,0.075,��,2.7,��
2023/07/22,12:40,0.144,0.132,0.207,0.198,0.209,0.115,0.073,��,2.3,��
2023/07/22,12:50,0.144,0.133,0.208,0.199,0.208,0.116,0.074,��,2.5,��
2023/07/22,13:00,0.145,0.133,0.208,0.199,0.208,0.115,0.073,��,2.1,��
2023/07/22,13:10,0.146,0.133,0.207,0.200,0.209,0.115,0.074,���쓌,1.7,��
2023/07/22,13:20,0.146,0.133,0.208,0.200,0.208,0.115,0.074,���쓌,1.9,��
2023/07/22,13:30,0.145,0.132,0.208,0.199,0.208,0.115,0.073,�쓌,2.1,��
2023/07/22,13:40,0.145,0.133,0.209,0.199,0.208,0.115,0.074,�쓌,1.9,��
2023/07/22,13:50,0.144,0.134,0.208,0.199,0.208,0.116,0.074,���쓌,1.9,��
2023/07/22,14:00,0.144,0.134,0.207,0.199,0.207,0.115,0.075,���쓌,1.9,��
2023/07/22,14:10,0.145,0.133,0.208,0.198,0.207,0.114,0.075,���쓌,1.3,��
2023/07/22,14:20,0.145,0.134,0.207,0.199,0.206,0.115,0.075,���쓌,2.3,��
2023/07/22,14:30,0.146,0.134,0.208,0.199,0.208,0.114,0.074,�쓌,1.8,��
2023/07/22,14:40,0.146,0.134,0.208,0.198,0.208,0.115,0.074,���쓌,2.2,��
2023/07/22,14:50,0.145,0.134,0.209,0.199,0.208,0.115,0.074,���쓌,1.1,��
2023/07/22,15:00,0.146,0.134,0.209,0.199,0.208,0.115,0.074,���쓌,1.8,��
2023/07/22,15:10,0.146,0.134,0.209,0.199,0.208,0.114,0.073,���쓌,2.2,��
2023/07/22,15:20,0.146,0.134,0.209,0.200,0.207,0.115,0.074,�쓌,2.1,��
2023/07/22,15:30,0.145,0.134,0.207,0.199,0.209,0.115,0.074,�쓌,2.3,��
2023/07/22,15:40,0.145,0.134,0.207,0.199,0.208,0.115,0.074,���쓌,2.1,��
2023/07/22,15:50,0.145,0.133,0.207,0.199,0.207,0.116,0.074,�쓌,0.6,��
2023/07/22,16:00,0.145,0.133,0.208,0.197,0.207,0.115,0.073,-,CALM,��
2023/07/22,16:10,0.145,0.132,0.207,0.198,0.207,0.115,0.073,-,CALM,��
2023/07/22,16:20,0.145,0.133,0.207,0.197,0.207,0.115,0.073,-,CALM,��
2023/07/22,16:30,0.144,0.133,0.207,0.198,0.207,0.116,0.075,��쓌,0.6,��
2023/07/22,16:40,0.144,0.133,0.211,0.199,0.206,0.114,0.073,��,0.8,��
2023/07/22,16:50,0.144,0.133,0.211,0.200,0.207,0.115,0.073,��쓌,1.9,��
2023/07/22,17:00,0.144,0.134,0.209,0.202,0.208,0.115,0.075,�쓌,1.9,��
2023/07/22,17:10,0.144,0.135,0.207,0.200,0.208,0.115,0.074,��쓌,2.0,��
2023/07/22,17:20,0.144,0.134,0.207,0.200,0.210,0.115,0.074,��,1.7,��
2023/07/22,17:30,0.147,0.134,0.208,0.199,0.211,0.115,0.073,�쓌,1.4,��
2023/07/22,17:40,0.146,0.133,0.212,0.201,0.209,0.115,0.073,�쓌,1.9,��
2023/07/22,17:50,0.146,0.134,0.209,0.201,0.208,0.115,0.074,�쓌,1.8,��
2023/07/22,18:00,0.145,0.135,0.207,0.200,0.208,0.115,0.073,�쓌,2.1,��
2023/07/22,18:10,0.144,0.134,0.207,0.199,0.209,0.116,0.074,�쓌,1.8,��
2023/07/22,18:20,0.146,0.133,0.210,0.199,0.211,0.115,0.074,�쓌,2.5,��
2023/07/22,18:30,0.146,0.133,0.210,0.201,0.209,0.115,0.074,��쓌,2.1,��
2023/07/22,18:40,0.145,0.134,0.209,0.201,0.207,0.115,0.075,�쓌,2.7,��
2023/07/22,18:50,0.145,0.134,0.207,0.201,0.207,0.116,0.075,��쓌,2.1,��
2023/07/22,19:00,0.145,0.134,0.210,0.199,0.210,0.115,0.074,���쓌,1.0,��
2023/07/22,19:10,0.147,0.132,0.210,0.200,0.208,0.115,0.073,��쓌,0.9,��
2023/07/22,19:20,0.147,0.135,0.208,0.202,0.207,0.115,0.073,��쓌,2.0,��
2023/07/22,19:30,0.145,0.134,0.207,0.200,0.207,0.116,0.074,��쓌,2.6,��
2023/07/22,19:40,0.145,0.133,0.210,0.199,0.210,0.117,0.073,��,3.6,��
2023/07/22,19:50,0.146,0.133,0.210,0.200,0.210,0.115,0.073,��,4.0,��
2023/07/22,20:00,0.147,0.135,0.207,0.201,0.207,0.115,0.074,��,3.1,��
2023/07/22,20:10,0.144,0.134,0.208,0.199,0.207,0.115,0.075,��,3.3,��
2023/07/22,20:20,0.143,0.133,0.210,0.198,0.210,0.116,0.074,��,3.5,��
2023/07/22,20:30,0.146,0.133,0.208,0.200,0.209,0.115,0.073,��,3.8,��
2023/07/22,20:40,0.147,0.135,0.207,0.201,0.206,0.114,0.074,��,3.5,��
2023/07/22,20:50,0.144,0.134,0.211,0.200,0.208,0.115,0.074,��쓌,2.4,��
2023/07/22,21:00,0.144,0.132,0.211,0.200,0.209,0.116,0.074,��,2.5,��
2023/07/22,21:10,0.147,0.134,0.209,0.202,0.209,0.116,0.074,��,2.5,��
2023/07/22,21:20,0.147,0.135,0.208,0.201,0.207,0.115,0.075,��,2.3,��
2023/07/22,21:30,0.146,0.133,0.210,0.200,0.208,0.116,0.074,��,2.5,��
2023/07/22,21:40,0.146,0.133,0.209,0.201,0.210,0.116,0.074,��,3.0,��
2023/07/22,21:50,0.147,0.134,0.208,0.201,0.208,0.116,0.074,��,2.9,��
2023/07/22,22:00,0.145,0.134,0.209,0.199,0.207,0.115,0.074,��,2.5,��
2023/07/22,22:10,0.145,0.134,0.210,0.199,0.211,0.115,0.075,��,3.1,��
2023/07/22,22:20,0.146,0.134,0.207,0.201,0.209,0.116,0.074,��,2.6,��
2023/07/22,22:30,0.145,0.134,0.209,0.202,0.208,0.116,0.074,��,2.6,��
2023/07/22,22:40,0.144,0.133,0.211,0.200,0.208,0.115,0.074,��,2.7,��
2023/07/22,22:50,0.145,0.135,0.208,0.200,0.211,0.115,0.073,��,3.5,��
2023/07/22,23:00,0.147,0.134,0.210,0.201,0.209,0.116,0.074,��,3.6,��
2023/07/22,23:10,0.146,0.133,0.211,0.200,0.207,0.115,0.074,��,3.8,��
2023/07/22,23:20,0.144,0.136,0.209,0.200,0.210,0.116,0.075,��,3.7,��
2023/07/22,23:30,0.147,0.134,0.208,0.202,0.211,0.115,0.074,��,3.6,��
2023/07/22,23:40,0.146,0.134,0.212,0.200,0.209,0.115,0.074,��쐼,3.4,��
2023/07/22,23:50,0.145,0.135,0.210,0.199,0.208,0.116,0.075,��쐼,3.3,��
